Regional Weather Roundup
Issued by NWS

Home | Current Version | Previous Version | Text Only | Print | Product List | Glossary Off
Versions: 1 2 3 4 5 6 7 8 9 10 11 12 13 14 15 16 17 18 19 20 21 22 23 24 25 26 27 28 29 30 31 32 33 34 35 36 37 38 39 40 41 42 43 44 45 46 47 48 49 50

000
ASUS43 KLOT 201610
RWRIL

ILLINOIS REGIONAL WEATHER ROUNDUP
NATIONAL WEATHER SERVICE CHICAGO/ROMEOVILLE IL
1100 AM CDT SUN APR 20 2014

NOTE: "FAIR" INDICATES FEW OR NO CLOUDS BELOW 12,000 FEET WITH NO
SIGNIFICANT WEATHER AND/OR OBSTRUCTIONS TO VISIBILITY.

* THESE STATIONS ARE NOT UNDER NWS QUALITY CONTROL. THEY ALSO MAY NOT
  REPORT WEATHER SUCH AS PRECIPITATION OR FOG.

ILZ001-002-007-009-015-016-024-201700-
NORTHWEST ILLINOIS

CITY           SKY/WX    TMP DP  RH WIND       PRES   REMARKS
MOLINE         SUNNY     74  43  32 SW12      30.13R
STERLING*      SUNNY     73  45  35 S6G17     30.15S
SAVANNA*       SUNNY     70  40  32 SW8       30.13F
$$

ILZ003-004-008-010-011-017-018-201700-
NORTH CENTRAL ILLINOIS

CITY           SKY/WX    TMP DP  RH WIND       PRES   REMARKS
ROCKFORD       MOSUNNY   68  40  35 S17       30.17F
FREEPORT*      SUNNY     69  42  37 S17       30.16S
ROCHELLE*      MOSUNNY   69  38  32 S18G24    30.17F
DE KALB*       MOSUNNY   65  40  39 S17G23    30.19S
PERU*          SUNNY     71  40  32 S12G20    30.17F
$$

ILZ005-006-012>014-019>023-201700-
NORTHEAST ILLINOIS

CITY           SKY/WX    TMP DP  RH WIND       PRES   REMARKS
CHICAGO-OHARE  PTSUNNY   68  36  30 S13       30.19F
CHICAGO-MIDWAY PTSUNNY   66  37  34 S12       30.20F
AURORA         SUNNY     66  40  38 S15       30.19F
LANSING*       SUNNY     66  35  31 SW14      30.21F
WAUKEGAN       MOSUNNY   66  36  32 S13       30.18F
DUPAGE AIRPORT SUNNY     66  38  35 S15       30.19F
KANKAKEE*      SUNNY     69  42  37 S13       30.21F
WHEELING       SUNNY     68  38  33 S10       30.20F
MORRIS*        SUNNY     70  31  23 S15       30.19F
ROMEOVILLE*    SUNNY     66  36  32 S10       30.20S
NORTHERLY ISL    N/A     65  32  29 SW8         N/A
$$

LMZ740>746-201700-
SOUTHERN LAKE MICHIGAN

STATION/POSITION SKY/WX   TEMP    WIND        PRES    VSBY  WAVE
                          AIR SEA DIR/SP/G                  HT/PER
                          (F)     (DEG/KT/KT) (MB)    (MI)  (FT/S)
WAUKEGAN HARBOR            48     180/  5/  7 1023.7S
HARRISON CRIB              54     150/ 12/ 14   N/A
BURNHAM HARBOR             65     200/  7/ 12   N/A
CALUMET HARBOR             63     180/  9/ 14 1023.4F
MICHIGAN CITY              61     160/ 11/ 15   N/A
$$

ILZ025>027-034>036-040-047-049-050-058-095>099-201700-
WEST-CENTRAL ILLINOIS

CITY           SKY/WX    TMP DP  RH WIND       PRES   REMARKS
QUINCY         MOSUNNY   74  47  38 SW15G22   30.14F
GALESBURG*     MOSUNNY   70  46  43 S14G21    30.16S
MACOMB*        PTSUNNY   71  43  37 S13       30.18S
JACKSONVILLE*  SUNNY     75  42  30 SW13      30.18F
PITTSFIELD*    SUNNY     74  44  34 SW10G17   30.17F
$$

ILZ028>032-037-038-041>044-048-051>054-059>061-201700-
CENTRAL ILLINOIS

CITY           SKY/WX    TMP DP  RH WIND       PRES   REMARKS
PONTIAC        SUNNY     72  37  28 S14       30.19F
BLOOMINGTON    MOSUNNY   69  39  33 S14       30.20F
PEORIA         MOSUNNY   69  42  37 S13       30.18F
LACON*         SUNNY     71  42  35 SW10G20   30.17S
LINCOLN*       MOSUNNY   74  40  29 S13       30.18F
SPRINGFIELD    SUNNY     74  41  30 S14       30.19F
TAYLORVILLE    SUNNY     70  43  37 S10G16    30.20F
$$

ILZ033-039-045-046-055>057-062-063-201700-
EAST-CENTRAL ILLINOIS

CITY           SKY/WX    TMP DP  RH WIND       PRES   REMARKS
CHAMPAIGN      MOSUNNY   72  38  29 S13       30.22S
RANTOUL*       MOSUNNY   71  35  27 S9        30.22F
MATTOON        SUNNY     67  42  40 S9        30.22S
PARIS*         SUNNY     70  39  32 S8        30.23F
$$

ILZ079-100>102-201700-
SOUTHWEST ILLINOIS

CITY           SKY/WX    TMP DP  RH WIND       PRES   REMARKS
ALTON          SUNNY     68  39  34 SE12      30.21S
BELLEVILLE     PTSUNNY   69  46  43 S8        30.20S
CAHOKIA*       PTSUNNY   72  46  39 S7        30.20S
SPARTA*        MOSUNNY   68  43  40 S7        30.22F
$$

ILZ064>066-069>071-074>076-080>082-084>086-088>090-092>094-201700-
SOUTH-CENTRAL ILLINOIS

CITY           SKY/WX    TMP DP  RH WIND       PRES   REMARKS
CARBONDALE     MOSUNNY   70  43  37 S8        30.21F
CAIRO*         MOSUNNY   75  44  32 SE8       30.22F
MARION         PTSUNNY   73  43  33 S9        30.22F
MT. VERNON     MOSUNNY  N/A N/A N/A S7        30.23F
CENTRALIA*       N/A     71  40  32 CALM      30.22F
SALEM*         SUNNY     71  45  38 S8        30.23S
METROPOLIS*    MOSUNNY   71  38  30 SE3       30.22S
$$

ILZ067-068-072-073-078-083-087-091-201700-
SOUTHEAST ILLINOIS

CITY           SKY/WX    TMP DP  RH WIND       PRES   REMARKS
FAIRFIELD*     SUNNY     70  46  43 S6        30.23S
HARRISBURG*    MOSUNNY   71  42  34 S3        30.24S
ROBINSON*      SUNNY     70  46  42 S3        30.24F
CARMI*         SUNNY     71  45  39 S7        30.23S
$$

ABBREVIATIONS USED IN REMARKS
   TC - TEMPERATURE IN CELSIUS
  WCI - WIND CHILL INDEX
   HX - HEAT INDEX
  VSB - VISIBILITY
$$




USA.gov is the U.S. government's official web portal to all federal, state and local government web resources and services.